Weather History for Glens Falls, NY

Change the Weather History Date:

Monday, June 4, 2012

  Actual Average Record
Temperature  
Mean Temperature 54 °F 61 °F  
Max Temperature 59 °F 74 °F 86 °F (2005)
Min Temperature 48 °F 49 °F 35 °F (2002)
Degree Days  
Heating Degree Days 11 5  
Month to date heating degree days 29 21  
Since 1 June heating degree days 29 21  
Since 1 July heating degree days 6018 7607  
Cooling Degree Days 0 1  
Month to date cooling degree days 0 4  
Year to date cooling degree days 44 16  
Since 1 June cooling degree days 0 4  
Growing Degree Days 4 (Base 50)    
Moisture  
Dew Point 50 °F    
Average Humidity 81    
Maximum Humidity 100    
Minimum Humidity 62    
Precipitation  
Precipitation 0.31 in 0.12 in 0.92 in (1972)
Month to date precipitation 1.25 0.47  
Year to date precipitation 13.68 14.96  
Sea Level Pressure  
Sea Level Pressure 29.76 in    
Wind  
Wind Speed 6 mph (NNE)    
Max Wind Speed 16 mph    
Max Gust Speed 22 mph    
Visibility 9 miles    
Events Rain    
T = Trace of Precipitation, MM = Missing Value Source: NWS Daily Summary

Daily Weather History Graph

Daily Weather History Graph

Search for Another Location

Airport:

Trip Planner

Search our weather history database for the weather conditions in past years. The results will help you decide how hot, cold, wet, or windy it might be!

Date:

Astronomy

Jun. 04, 2012 Rise Set
Actual Time 5:15 AM EDT 8:30 PM EDT
Civil Twilight 4:40 AM EDT 9:05 PM EDT
Nautical Twilight 3:55 AM EDT 9:51 PM EDT
Astronomical Twilight 2:59 AM EDT 10:46 PM EDT
Moon 8:57 PM EDT (6/4) 5:19 AM EDT (6/4)
Length of Visible Light 16h 25m
Length of Day
15h 15m
Full, 100% of the Moon is Illuminated
Jun 4
Full
Jun 11
Last Quarter
Jun 19
New
Jun 26
First Quarter
Jul 3
Full

Hourly Weather History & Observations

Time (EDT) Temp. Dew Point Humidity Pressure Visibility Wind Dir Wind Speed Gust Speed Precip Events Conditions
12:53 AM 55.0 °F 53.1 °F 93% 29.68 in 10.0 mi NNE 5.8 mph - N/A   Overcast
1:53 AM 53.1 °F 52.0 °F 96% 29.68 in 8.0 mi Calm Calm - 0.05 in Rain Light Rain
2:53 AM 53.1 °F 53.1 °F 100% 29.67 in 10.0 mi NW 4.6 mph - 0.00 in Rain Light Rain
3:53 AM 53.1 °F 52.0 °F 96% 29.66 in 10.0 mi Calm Calm - 0.03 in Rain Light Rain
4:53 AM 53.1 °F 52.0 °F 96% 29.67 in 10.0 mi North 3.5 mph - 0.00 in   Overcast
5:53 AM 53.1 °F 50.0 °F 89% 29.68 in 10.0 mi NNE 5.8 mph - N/A   Overcast
6:53 AM 53.1 °F 48.9 °F 86% 29.69 in 10.0 mi NNE 6.9 mph - N/A   Overcast
7:53 AM 53.1 °F 50.0 °F 89% 29.70 in 10.0 mi NE 8.1 mph - N/A   Overcast
8:53 AM 53.1 °F 50.0 °F 89% 29.72 in 10.0 mi NE 6.9 mph - 0.00 in Rain Light Rain
9:53 AM 52.0 °F 48.9 °F 89% 29.73 in 10.0 mi NE 6.9 mph - 0.02 in Rain Light Rain
10:53 AM 52.0 °F 50.0 °F 93% 29.75 in 10.0 mi East 4.6 mph - 0.03 in Rain Light Rain
11:53 AM 55.0 °F 51.1 °F 86% 29.75 in 10.0 mi North 8.1 mph - 0.01 in Rain Light Rain
12:53 PM 54.0 °F 52.0 °F 93% 29.76 in 10.0 mi NE 6.9 mph - 0.00 in Rain Light Rain
1:10 PM 53.6 °F 51.8 °F 94% 29.76 in 6.0 mi East 10.4 mph - 0.01 in Rain Light Rain
1:17 PM 53.6 °F 50.0 °F 88% 29.76 in 4.0 mi East 9.2 mph - 0.03 in Rain Light Rain
1:25 PM 53.6 °F 48.2 °F 82% 29.76 in 4.0 mi NNE 8.1 mph - 0.04 in Rain Rain
1:53 PM 55.0 °F 50.0 °F 83% 29.76 in 10.0 mi NNE 3.5 mph - 0.08 in   Mostly Cloudy
2:53 PM 55.9 °F 52.0 °F 87% 29.77 in 10.0 mi NE 9.2 mph - 0.06 in   Overcast
3:22 PM 55.4 °F 51.8 °F 88% 29.77 in 10.0 mi ENE 10.4 mph 21.9 mph 0.01 in Rain Light Rain
3:35 PM 55.4 °F 48.2 °F 77% 29.77 in 10.0 mi ENE 11.5 mph - 0.01 in   Overcast
3:53 PM 57.0 °F 48.9 °F 74% 29.78 in 10.0 mi NE 11.5 mph - 0.01 in   Overcast
4:53 PM 57.9 °F 45.0 °F 62% 29.79 in 10.0 mi ENE 11.5 mph - N/A   Overcast
5:53 PM 57.9 °F 45.0 °F 62% 29.80 in 10.0 mi NNE 5.8 mph - N/A   Overcast
6:53 PM 54.0 °F 51.1 °F 90% 29.83 in 4.0 mi NE 10.4 mph 19.6 mph 0.02 in Rain Rain
7:53 PM 53.1 °F 51.1 °F 93% 29.84 in 10.0 mi North 4.6 mph - 0.00 in   Overcast
8:53 PM 53.1 °F 51.1 °F 93% 29.85 in 10.0 mi NNW 4.6 mph - N/A   Overcast
9:53 PM 52.0 °F 51.1 °F 97% 29.87 in 10.0 mi North 4.6 mph - N/A   Overcast
10:53 PM 52.0 °F 50.0 °F 93% 29.86 in 10.0 mi North 4.6 mph - N/A   Overcast
11:53 PM 52.0 °F 50.0 °F 93% 29.86 in 10.0 mi North 3.5 mph - N/A   Mostly Cloudy